{"data":{"norad_id":60102,"intl_designator":"2024-117M","name":"STARLINK-31954","alt_names":[],"object_type":"PAYLOAD","status":"ACTIVE","operator":null,"country":"US","launch_date":"2024-06-23","launch_site_code":"AFETR","launch_vehicle":null,"mission":null,"orbit_class":"UNKNOWN","rcs_meters":null,"size_class":null,"mass_kg":null,"dimensions":null,"purposes":["comms"],"wikipedia_slug":null,"has_3d_model":false,"image_url":null,"decayed_at":null,"tle_current":{"epoch":"2026-05-25T02:34:34.768704Z","epoch_age_seconds":61664,"freshness":"FRESH","line1":"1 60102U 24117M   26145.10734686  .00001138  00000+0  50539-4 0  9995","line2":"2 60102  53.1619  42.3650 0001355  86.4328 273.6827 15.30192831108581","mean_motion":15.30192831,"eccentricity":0.0001355,"inclination_deg":53.1619,"raan_deg":42.365,"arg_perigee_deg":86.4328,"mean_anomaly_deg":273.6827,"bstar":5.0539e-5,"rev_number":10858,"period_min":94.105786592853,"perigee_km":474.30784273883,"apogee_km":476.16510695052,"semimajor_km":6853.3734748447,"source":"CELESTRAK","updated_at":"2026-05-25T13:38:19.162282Z"}}}